Weather History for Monticello, AR

Change the Weather History Date:

Tuesday, March 12, 2013

  Actual Average Record
Temperature  
Mean Temperature 48 °F -  
Max Temperature 64 °F 66 °F 89 °F (2006)
Min Temperature 32 °F 43 °F 20 °F (1948)
Degree Days  
Heating Degree Days 17    
Moisture  
Dew Point 30 °F    
Average Humidity 56    
Maximum Humidity 92    
Minimum Humidity 24    
Precipitation  
Precipitation 0.00 in - - ()
Sea Level Pressure  
Sea Level Pressure 30.16 in    
Wind  
Wind Speed 2 mph (NNW)    
Max Wind Speed 10 mph    
Max Gust Speed -    
Visibility 10 miles    
Events Rain    
Averages and records for this station are not official NWS values.
T = Trace of Precipitation, MM = Missing Value Source: NWS Daily Summary

Daily Weather History Graph

Daily Weather History Graph

Search for Another Location

Airport:

Trip Planner

Search our weather history database for the weather conditions in past years. The results will help you decide how hot, cold, wet, or windy it might be!

Date:

Astronomy

Mar. 12, 2013 Rise Set
Actual Time 7:21 AM CDT 7:12 PM CDT
Civil Twilight 6:56 AM CDT 7:37 PM CDT
Nautical Twilight 6:27 AM CDT 8:06 PM CDT
Astronomical Twilight 5:58 AM CDT 8:35 PM CDT
Moon 7:32 AM CDT (3/12) 8:22 PM CDT (3/12)
Length of Visible Light 12h 41m
Length of Day
11h 51m
New Moon, 1% of the Moon is Illuminated
Mar 12
New Moon
Mar 19
First Quarter
Mar 27
Full
Apr 2
Last Quarter
Apr 10
New

Hourly Weather History & Observations

Time (CDT) Temp. Windchill Dew Point Humidity Pressure Visibility Wind Dir Wind Speed Gust Speed Precip Events Conditions
12:53 AM 37.0 °F - 33.1 °F 86% 30.07 in 10.0 mi Calm Calm - N/A   Clear
1:53 AM 34.0 °F - 30.9 °F 89% 30.08 in 10.0 mi Calm Calm - N/A   Clear
2:53 AM 33.1 °F - 30.9 °F 92% 30.07 in 10.0 mi Calm Calm - N/A   Clear
3:53 AM 33.1 °F 30.0 °F 30.0 °F 89% 30.07 in 10.0 mi WNW 3.5 mph - N/A   Clear
4:53 AM 32.0 °F 28.7 °F 30.0 °F 92% 30.09 in 10.0 mi WNW 3.5 mph - N/A   Clear
5:53 AM 37.0 °F - 28.0 °F 70% 30.10 in 10.0 mi Calm Calm - N/A   Clear
6:53 AM 32.0 °F 28.7 °F 28.9 °F 88% 30.12 in 10.0 mi NW 3.5 mph - N/A   Clear
7:53 AM 34.0 °F - 30.0 °F 85% 30.14 in 10.0 mi Calm Calm - N/A   Clear
8:53 AM 42.1 °F 38.4 °F 30.9 °F 65% 30.19 in 10.0 mi NW 5.8 mph - N/A   Clear
9:53 AM 48.0 °F - 30.0 °F 50% 30.21 in 10.0 mi NNE 4.6 mph - 0.00 in Rain Light Rain
10:53 AM 53.1 °F - 25.0 °F 34% 30.22 in 10.0 mi NE 10.4 mph - 0.00 in   Clear
11:53 AM 54.0 °F - 21.0 °F 28% 30.23 in 10.0 mi NNW 5.8 mph - N/A   Clear
12:53 PM 57.9 °F - 21.0 °F 24% 30.22 in 10.0 mi NNW 8.1 mph - 0.00 in   Clear
1:53 PM 60.1 °F - 25.0 °F 26% 30.19 in 10.0 mi Calm Calm - N/A   Clear
2:53 PM 62.1 °F - 27.0 °F 26% 30.18 in 10.0 mi Calm Calm - N/A   Clear
3:53 PM 64.0 °F - 28.9 °F 27% 30.16 in 10.0 mi Calm Calm - N/A   Clear
4:53 PM 64.9 °F - 28.9 °F 26% 30.15 in 10.0 mi Variable 3.5 mph - N/A   Clear
5:53 PM 63.0 °F - 32.0 °F 31% 30.14 in 10.0 mi ENE 5.8 mph - N/A   Clear
6:53 PM 62.1 °F - 30.9 °F 31% 30.15 in 10.0 mi Calm Calm - N/A   Clear
7:53 PM 55.9 °F - 35.1 °F 45% 30.17 in 10.0 mi SSE 3.5 mph - N/A   Clear
8:53 PM 53.1 °F - 36.0 °F 52% 30.19 in 10.0 mi South 6.9 mph - N/A   Clear
10:53 PM 48.0 °F - 36.0 °F 63% 30.23 in 10.0 mi Calm Calm - N/A   Clear
11:53 PM 45.0 °F 43.5 °F 36.0 °F 71% 30.25 in 10.0 mi WNW 3.5 mph - N/A   Clear